[[{"header":{"parameterUnit":"m.s-1","parameterCategory":1,"la1":30.2991,"la2":30.254,"lo1":-89.0895,"lo2":-89.0444,"dy":0.0017,"dx":0.0017,"nx":28,"ny":28,"refTime":"2024-07-20T03:00:00:Z","depth":0,"parameterNumber":2,"parameterNumberName":"U-component_of_WINDS"},"data":[0,0,0,0,0,0,0,0,0,0,0,0,0,0,0,0,0,0,0,0,0,0,0,0,0,0,0,0,0,0,0,0,0,0,0,0,0,0,0,0,0,0,0,0,0,0,0,0,0,0,0,0,0,0,0,0,0,0,-0.2351,-0.2352,0,-0.2451,-0.2452,-0.2453,-0.2496,-0.2496,-0.2495,-0.2495,-0.2604,-0.2606,-0.261,0,0,0,0,0,0,0,0,0,0,0,0,0,-0.2202,-0.2205,-0.2351,-0.2352,-0.2353,-0.2451,-0.2452,-0.2454,-0.2496,-0.2496,-0.2495,-0.2495,-0.2602,-0.2606,-0.261,0,0,0,0,0,0,0,0,0,0,0,0,0,-0.2281,-0.2206,-0.235,-0.2386,-0.239,-0.245,-0.2452,-0.2454,-0.2496,-0.2496,-0.2495,-0.2495,-0.2601,-0.2606,-0.261,-0.2645,0,0,-0.2624,-0.2626,0,0,0,0,0,0,0,0,-0.2277,-0.2287,-0.2379,-0.2383,-0.2388,-0.246,-0.244,-0.2518,-0.2496,-0.2456,-0.2495,-0.2495,-0.2557,-0.2565,-0.2584,-0.265,-0.2654,-0.2625,-0.2628,-0.263,-0.2631,0,0,0,0,0,0,0,-0.2271,-0.2283,-0.2391,-0.2381,-0.2386,-0.2399,-0.241,-0.2455,-0.2507,-0.2459,-0.2463,-0.2474,-0.2559,-0.258,-0.2587,-0.2656,-0.2625,-0.2629,-0.2632,-0.2633,-0.2757,-0.2757,0,0,0,0,0,0,-0.2259,-0.2278,-0.2387,-0.2393,-0.233,-0.2402,-0.2414,-0.2438,-0.2506,-0.2516,-0.2474,-0.2475,-0.2572,-0.2582,-0.2591,-0.2637,-0.263,-0.2634,-0.2636,-0.2756,-0.2757,-0.2757,0,0,0,0,0,0,-0.2256,-0.2268,-0.2383,-0.2337,-0.2352,-0.2405,-0.2431,-0.244,-0.2461,-0.2517,-0.2527,-0.2485,-0.2572,-0.2585,-0.2631,-0.2641,-0.2636,-0.264,-0.2756,-0.2756,-0.2757,-0.2728,0,0,0,0,0,0,-0.2251,-0.2267,-0.2279,-0.2336,-0.2354,-0.2419,-0.2432,-0.2442,-0.2468,-0.2471,-0.2531,-0.254,-0.2573,-0.2624,-0.2636,-0.2648,-0.2644,-0.2755,-0.2756,-0.2757,-0.2728,-0.2728,-0.2727,0,0,0,0,0,-0.2246,-0.2268,-0.2279,-0.2292,-0.237,-0.242,-0.243,-0.2466,-0.2468,-0.2482,-0.2519,-0.2538,-0.2638,-0.2628,-0.2642,-0.2655,-0.2754,-0.2756,-0.2757,-0.2729,-0.2728,-0.2727,0,0,0,0,0,0,-0.2212,-0.2276,-0.2289,-0.233,-0.2369,-0.2427,-0.2445,-0.2464,-0.2504,-0.2505,-0.255,-0.2563,-0.2606,-0.2636,-0.2623,-0.2693,-0.2698,-0.2702,-0.2672,-0.2672,-0.2671,-0.2664,-0.2648,0,0,0,0,0,-0.2208,-0.2241,-0.2297,-0.2327,-0.2346,-0.2392,-0.2415,-0.2439,-0.2482,-0.2499,-0.2539,-0.2582,-0.2623,-0.2649,-0.269,-0.2733,-0.2748,-0.2749,-0.2748,-0.2748,-0.2751,-0.2777,-0.2779,-0.2761,-0.2761,-0.2761,0,0,-0.2203,-0.2242,-0.2261,-0.2321,-0.2354,-0.239,-0.2406,-0.2442,-0.2469,-0.2505,-0.2551,-0.2582,-0.2633,-0.2678,-0.27,-0.2704,-0.2759,-0.2749,-0.2748,-0.2752,-0.2779,-0.278,-0.2782,-0.2762,-0.2762,-0.2762,0,0,-0.2211,-0.2243,-0.2273,-0.2305,-0.2354,-0.2385,-0.2392,-0.2448,-0.2469,-0.2515,-0.2543,-0.2578,-0.2647,-0.2682,-0.2709,-0.2732,-0.2752,-0.2744,-0.2742,-0.2767,-0.2768,-0.277,-0.2779,-0.2782,-0.2747,-0.2747,-0.2747,0,-0.2199,-0.2251,-0.2286,-0.2321,-0.2348,-0.238,-0.2412,-0.2443,-0.2504,-0.2522,-0.2526,-0.2614,-0.2651,-0.2705,-0.271,-0.2731,-0.2742,-0.2738,-0.2765,-0.2767,-0.2769,-0.2778,-0.2781,-0.2746,-0.2746,-0.2746,-0.2746,0,-0.2234,-0.2269,-0.2288,-0.2344,-0.2373,-0.2406,-0.2449,-0.2474,-0.2496,-0.2527,-0.2575,-0.262,-0.2671,-0.2686,-0.2708,-0.2744,-0.2745,-0.2756,-0.2762,-0.2768,-0.2778,-0.2782,-0.2744,-0.2744,-0.2745,-0.2745,0,0,-0.2222,-0.2298,-0.2304,-0.233,-0.2388,-0.2417,-0.2453,-0.2501,-0.2523,-0.2564,-0.2597,-0.2655,-0.2666,-0.2696,-0.2723,-0.2745,-0.2762,-0.2754,-0.2756,-0.2755,-0.2806,-0.2798,-0.2801,-0.2775,-0.2776,-0.2777,-0.2802,0,-0.2239,-0.2301,-0.2335,-0.2385,-0.242,-0.2452,-0.2483,-0.2523,-0.2553,-0.2589,-0.2623,-0.2664,-0.2675,-0.2693,-0.2717,-0.2755,-0.2773,-0.2753,-0.2808,-0.2809,-0.2794,-0.2806,-0.2797,-0.2819,-0.2806,-0.2807,-0.2807,0,-0.2266,-0.2305,-0.2357,-0.2412,-0.2428,-0.2455,-0.2503,-0.2535,-0.2582,-0.2603,-0.2637,-0.2664,-0.2705,-0.2707,-0.2766,-0.2752,-0.2776,-0.2799,-0.28,-0.2807,-0.2809,-0.2814,-0.2826,-0.283,-0.2813,-0.2813,-0.2812,0,-0.2254,-0.232,-0.236,-0.2382,-0.2445,-0.2464,-0.2492,-0.2538,-0.2565,-0.2608,-0.2627,-0.2674,-0.27,-0.2737,-0.2777,-0.2774,-0.2832,-0.2837,-0.2852,-0.2851,-0.2863,-0.2862,-0.288,-0.2877,-0.2877,-0.2877,-0.2877,0,-0.2269,-0.23,-0.2355,-0.238,-0.2417,-0.2456,-0.2492,-0.2523,-0.2564,-0.2597,-0.2629,-0.266,-0.2709,-0.2747,-0.2778,-0.2823,-0.2834,-0.2854,-0.2862,-0.2851,-0.2849,-0.2869,-0.2868,-0.2878,-0.2878,-0.2878,-0.2878,0,-0.2261,-0.2299,-0.2345,-0.2402,-0.2417,-0.2442,-0.2491,-0.2518,-0.255,-0.2591,-0.2604,-0.2655,-0.2701,-0.2743,-0.2805,-0.2827,-0.2872,-0.2882,-0.2856,-0.286,-0.2873,-0.2871,-0.2905,-0.2912,-0.2903,-0.2903,-0.2903,0,-0.2268,-0.2293,-0.2352,-0.2375,-0.2402,-0.244,-0.2467,-0.2508,-0.2536,-0.2592,-0.2612,-0.266,-0.2701,-0.2774,-0.2818,-0.2866,-0.2878,-0.2886,-0.2885,-0.2874,-0.2879,-0.2877,-0.2881,-0.2886,-0.2885,-0.2885,-0.2885,0,-0.2277,-0.2295,-0.2333,-0.2378,-0.2409,-0.2447,-0.2486,-0.2504,-0.2553,-0.2583,-0.263,-0.2661,-0.2724,-0.2772,-0.2825,-0.2857,-0.288,-0.2885,-0.2891,-0.2881,-0.2865,-0.2875,-0.2855,-0.2884,-0.2884,-0.2885,-0.2885,-0.2885,-0.2278,-0.2302,-0.2347,-0.2389,-0.2422,-0.2458,-0.2486,-0.2521,-0.256,-0.2613,-0.2635,-0.2683,-0.2732,-0.2805,-0.2836,-0.2876,-0.2881,-0.2889,-0.2892,-0.2893,-0.2892,-0.2858,-0.2886,-0.2886,-0.2886,-0.2886,-0.2886,0,-0.229,-0.232,-0.2358,-0.2411,-0.2444,-0.2461,-0.2506,-0.2533,-0.2574,-0.2616,-0.2655,-0.271,-0.2757,-0.2804,-0.2855,-0.2878,-0.289,-0.289,-0.2889,-0.2896,-0.2884,-0.2874,-0.2879,-0.2879,-0.2879,-0.2879,-0.2879,-0.2879,-0.23,-0.2341,-0.2364,-0.2424,-0.2455,-0.25,-0.2525,-0.2559,-0.2593,-0.2651,-0.269,-0.272,-0.2766,-0.282,-0.2864,-0.2878,-0.2895,-0.2892,-0.2908,-0.2896,-0.2897,-0.2897,-0.2888,-0.2896,-0.2896,-0.2917,-0.2918,-0.2918]},{"header":{"parameterUnit":"m.s-1","parameterCategory":1,"la1":30.2991,"la2":30.254,"lo1":-89.0895,"lo2":-89.0444,"dy":0.0017,"dx":0.0017,"nx":28,"ny":28,"refTime":"2024-07-20T03:00:00:Z","depth":0,"parameterNumber":3,"parameterNumberName":"V-component_of_WINDS"},"data":[0,0,0,0,0,0,0,0,0,0,0,0,0,0,0,0,0,0,0,0,0,0,0,0,0,0,0,0,0,0,0,0,0,0,0,0,0,0,0,0,0,0,0,0,0,0,0,0,0,0,0,0,0,0,0,0,0,0,5.3734,5.3735,0,5.3832,5.3833,5.3834,5.3785,5.3783,5.378,5.3778,5.3872,5.3877,5.3881,0,0,0,0,0,0,0,0,0,0,0,0,0,5.3496,5.3501,5.3734,5.3735,5.3736,5.3832,5.3833,5.3835,5.3786,5.3783,5.378,5.3777,5.387,5.3876,5.3882,0,0,0,0,0,0,0,0,0,0,0,0,0,5.3597,5.3502,5.3733,5.3724,5.3724,5.3832,5.3833,5.3835,5.3787,5.3783,5.3779,5.3775,5.3868,5.3875,5.3883,5.4004,0,0,5.3905,5.3908,0,0,0,0,0,0,0,0,5.3591,5.3606,5.3724,5.3724,5.3725,5.3793,5.3784,5.3891,5.3787,5.3762,5.3778,5.3773,5.3848,5.3857,5.3883,5.4008,5.4012,5.3906,5.391,5.3913,5.3915,0,0,0,0,0,0,0,5.3584,5.3601,5.3772,5.3725,5.3726,5.3712,5.3722,5.3804,5.3825,5.3764,5.3761,5.3774,5.3848,5.3876,5.3885,5.4014,5.3905,5.3912,5.3916,5.3919,5.4239,5.4243,0,0,0,0,0,0,5.3579,5.3596,5.3769,5.3775,5.3648,5.3719,5.373,5.3775,5.3824,5.3828,5.3777,5.3771,5.3866,5.3877,5.3888,5.4031,5.3913,5.392,5.3924,5.4235,5.424,5.4245,0,0,0,0,0,0,5.3574,5.3595,5.3765,5.3685,5.3705,5.3727,5.3777,5.3779,5.3807,5.3834,5.3837,5.3803,5.3863,5.3878,5.3975,5.4033,5.3923,5.393,5.423,5.4237,5.4242,5.4319,0,0,0,0,0,0,5.3567,5.3593,5.3642,5.3686,5.371,5.3853,5.3781,5.3783,5.3821,5.3814,5.3859,5.3863,5.3861,5.3965,5.3982,5.4042,5.3935,5.4225,5.4233,5.424,5.4311,5.4327,5.434,0,0,0,0,0,5.3559,5.3658,5.3644,5.3665,5.3771,5.3857,5.387,5.3868,5.3826,5.3873,5.389,5.3861,5.4025,5.3975,5.3995,5.4057,5.4221,5.4231,5.424,5.4304,5.4324,5.434,0,0,0,0,0,0,5.3618,5.3664,5.3649,5.3766,5.3808,5.3848,5.3908,5.3889,5.3942,5.3933,5.3927,5.3938,5.4038,5.4057,5.4001,5.4175,5.4116,5.413,5.4158,5.4177,5.4191,5.4183,5.3942,0,0,0,0,0,5.3645,5.3713,5.3749,5.3848,5.387,5.3886,5.3923,5.3918,5.396,5.3977,5.4001,5.4041,5.4101,5.414,5.4197,5.4314,5.4321,5.4367,5.4381,5.4393,5.4404,5.4464,5.4483,5.4275,5.4275,5.4275,0,0,5.37,5.3734,5.3777,5.3861,5.3893,5.396,5.3901,5.3975,5.4024,5.3988,5.4081,5.41,5.4143,5.425,5.4299,5.427,5.4464,5.4405,5.4414,5.4419,5.4476,5.4495,5.4513,5.4281,5.428,5.4279,0,0,5.3835,5.3869,5.3955,5.3988,5.4038,5.4048,5.4068,5.4111,5.4123,5.4217,5.419,5.4247,5.4352,5.4383,5.4413,5.456,5.4534,5.4578,5.4653,5.4712,5.4728,5.4743,5.4792,5.481,5.459,5.459,5.459,0,5.3897,5.4001,5.4001,5.4077,5.4113,5.4086,5.417,5.4202,5.4267,5.4291,5.4259,5.4388,5.4416,5.4528,5.4564,5.4591,5.4611,5.4572,5.4727,5.4741,5.4754,5.4801,5.482,5.4595,5.4594,5.4594,5.4593,0,5.4072,5.4144,5.4207,5.4272,5.4316,5.4396,5.4406,5.4449,5.4441,5.4453,5.4547,5.458,5.4642,5.4669,5.4661,5.4779,5.4759,5.4727,5.4667,5.4779,5.4822,5.4841,5.4602,5.46,5.4599,5.4597,0,0,5.4246,5.431,5.4333,5.4361,5.4414,5.4468,5.4546,5.4608,5.4644,5.469,5.4753,5.4842,5.4812,5.4846,5.4841,5.4893,5.5003,5.4854,5.4855,5.4878,5.5132,5.5153,5.5174,5.4988,5.4991,5.4994,5.5127,0,5.4382,5.4521,5.4522,5.4648,5.4713,5.4687,5.4754,5.4792,5.4806,5.486,5.4874,5.4936,5.4894,5.4913,5.4964,5.4979,5.5053,5.497,5.5042,5.5045,5.5029,5.5198,5.5221,5.5345,5.5144,5.5147,5.5149,0,5.4559,5.4612,5.4745,5.4787,5.4814,5.4875,5.4931,5.4985,5.5026,5.5032,5.507,5.5057,5.5133,5.5073,5.5176,5.5119,5.5149,5.5161,5.5165,5.5169,5.5102,5.5203,5.5385,5.5402,5.5177,5.5175,5.5173,0,5.4668,5.4773,5.4865,5.489,5.4942,5.4985,5.5008,5.5046,5.5083,5.5132,5.5155,5.5211,5.5241,5.5284,5.5285,5.5242,5.5388,5.5329,5.5392,5.5392,5.5421,5.5418,5.5607,5.5446,5.5446,5.5445,5.5445,0,5.4818,5.49,5.4914,5.4971,5.506,5.5061,5.5149,5.5168,5.5202,5.5259,5.5241,5.5294,5.5295,5.5349,5.5351,5.5433,5.5448,5.5452,5.5451,5.5452,5.5451,5.5469,5.5459,5.545,5.5449,5.5448,5.5447,0,5.4954,5.4968,5.5066,5.5107,5.512,5.5183,5.5217,5.5269,5.5281,5.5354,5.5371,5.5389,5.5451,5.5458,5.5531,5.5531,5.563,5.5622,5.5617,5.5614,5.5675,5.5668,5.5879,5.5905,5.5731,5.5732,5.5734,0,5.5047,5.5109,5.5158,5.5196,5.5222,5.5284,5.5321,5.5324,5.5363,5.5415,5.546,5.5522,5.557,5.5671,5.5688,5.5743,5.5733,5.5803,5.5741,5.5739,5.573,5.5725,5.573,5.5814,5.5816,5.5818,5.5819,0,5.521,5.5214,5.527,5.5329,5.5375,5.5421,5.5464,5.5495,5.5503,5.5548,5.5613,5.5651,5.5725,5.5785,5.5838,5.5859,5.5839,5.5839,5.5856,5.5856,5.5849,5.585,5.5646,5.5833,5.5832,5.5831,5.583,5.583,5.5325,5.5378,5.5421,5.5483,5.5516,5.5557,5.5607,5.5626,5.5681,5.5743,5.574,5.5811,5.5848,5.5919,5.5944,5.5997,5.5973,5.5998,5.6004,5.6009,5.6014,5.5844,5.6007,5.6006,5.6006,5.6006,5.6005,0,5.5484,5.5511,5.5569,5.563,5.5678,5.5659,5.5705,5.5746,5.5809,5.5847,5.5896,5.5969,5.6026,5.6049,5.6105,5.6142,5.6135,5.6157,5.6152,5.6156,5.6033,5.6012,5.6162,5.6162,5.6162,5.6162,5.6162,5.6162,5.5573,5.5661,5.5669,5.5772,5.5797,5.5868,5.5895,5.5931,5.5961,5.6044,5.6093,5.6108,5.6139,5.6196,5.6247,5.6252,5.6272,5.6297,5.6298,5.6181,5.6165,5.615,5.613,5.6302,5.6302,5.6416,5.6417,5.6417]}]]